Homer, AK

10:45 AM AKDT on March 27, 2017 (GMT -0800)
Homer

Weather History for PAHO - November, 2012

Change the Weather History Date:

Friday, November 23, 2012

  Actual Average Record
Temperature  
Mean Temperature 24 °F -  
Max Temperature 30 °F 33 °F 49 °F (1992)
Min Temperature 18 °F 21 °F -1 °F (1963)
Degree Days  
Heating Degree Days 41    
Moisture  
Dew Point 15 °F    
Average Humidity 66    
Maximum Humidity 78    
Minimum Humidity 53    
Precipitation  
Precipitation 0.00 in - - ()
Sea Level Pressure  
Sea Level Pressure 29.61 in    
Wind  
Wind Speed 2 mph (NE)    
Max Wind Speed 8 mph    
Max Gust Speed -    
Visibility 10 miles    
Events      
Averages and records for this station are not official NWS values.
T = Trace of Precipitation, MM = Missing Value Source: NWS Daily Summary

Daily Weather History Graph

Daily Weather History Graph

Search for Another Location

Airport or City:

Trip Planner

Search our weather history database for the weather conditions in past years. The results will help you decide how hot, cold, wet, or windy it might be!

Date:

Astronomy

Nov. 23, 2012 Rise Set
Actual Time 9:22 AM AKST 4:21 PM AKST
Civil Twilight 8:31 AM AKST 5:13 PM AKST
Nautical Twilight 7:38 AM AKST 6:05 PM AKST
Astronomical Twilight 6:49 AM AKST 6:55 PM AKST
Moon 2:34 PM AKST (11/23) 3:52 AM AKST (11/23)
Length of Visible Light 8h 41m
Length of Day
6h 59m
Waxing Gibbous, 81% of the Moon is Illuminated
Nov 23
Waxing Gibbous
Nov 28
Full
Dec 6
Last Quarter
Dec 12
New
Dec 19
First Quarter

Hourly Weather History & Observations

Time (AKST) Temp. Windchill Dew Point Humidity Pressure Visibility Wind Dir Wind Speed Gust Speed Precip Events Conditions
12:53 AM 19.0 °F - 10.9 °F 71% 29.48 in 10.0 mi Calm Calm - N/A   Clear
1:53 AM 18.0 °F - 10.9 °F 74% 29.48 in 10.0 mi Calm Calm - N/A   Clear
3:53 AM 21.0 °F - 10.9 °F 65% 29.49 in 10.0 mi Calm Calm - N/A   Partly Cloudy
4:53 AM 24.1 °F - 10.0 °F 55% 29.50 in 10.0 mi Calm Calm - N/A   Overcast
5:53 AM 23.0 °F 18.4 °F 14.0 °F 68% 29.52 in 10.0 mi NNE 3.5 mph - N/A   Overcast
6:53 AM 24.1 °F - 12.0 °F 60% 29.53 in 10.0 mi Calm Calm - N/A   Overcast
7:53 AM 26.1 °F 20.5 °F 12.9 °F 58% 29.56 in 10.0 mi NE 4.6 mph - N/A   Overcast
8:53 AM 26.1 °F - 10.9 °F 53% 29.57 in 10.0 mi Calm Calm - N/A   Mostly Cloudy
9:53 AM 25.0 °F - 12.9 °F 60% 29.60 in 10.0 mi Calm Calm - N/A   Mostly Cloudy
10:53 AM 28.0 °F 22.8 °F 15.1 °F 58% 29.61 in 10.0 mi NE 4.6 mph - N/A   Overcast
11:53 AM 28.9 °F 21.9 °F 17.1 °F 61% 29.62 in 10.0 mi NE 6.9 mph - N/A   Overcast
12:53 PM 28.9 °F 21.9 °F 17.1 °F 61% 29.63 in 10.0 mi ENE 6.9 mph - N/A   Overcast
1:53 PM 28.9 °F 23.9 °F 19.0 °F 67% 29.63 in 10.0 mi ENE 4.6 mph - N/A   Mostly Cloudy
2:53 PM 30.0 °F 22.4 °F 19.0 °F 64% 29.64 in 10.0 mi ENE 8.1 mph - N/A   Mostly Cloudy
3:53 PM 28.9 °F 22.8 °F 19.0 °F 67% 29.64 in 10.0 mi ENE 5.8 mph - N/A   Mostly Cloudy
4:53 PM 28.9 °F 25.2 °F 18.0 °F 64% 29.65 in 10.0 mi East 3.5 mph - N/A   Overcast
5:53 PM 28.9 °F 23.9 °F 19.0 °F 67% 29.66 in 10.0 mi ENE 4.6 mph - N/A   Overcast
6:53 PM 28.0 °F - 18.0 °F 66% 29.66 in 10.0 mi Calm Calm - N/A   Overcast
7:53 PM 26.1 °F 20.5 °F 17.1 °F 69% 29.67 in 10.0 mi ENE 4.6 mph - N/A   Overcast
8:53 PM 25.0 °F - 17.1 °F 72% 29.68 in 10.0 mi Calm Calm - N/A   Mostly Cloudy
9:53 PM 21.9 °F - 16.0 °F 78% 29.69 in 10.0 mi Calm Calm - N/A   Clear
10:53 PM 21.0 °F 16.2 °F 15.1 °F 78% 29.70 in 10.0 mi NNE 3.5 mph - N/A   Clear
11:53 PM 19.9 °F 12.1 °F 14.0 °F 78% 29.71 in 10.0 mi NE 5.8 mph - N/A   Clear